Regional Weather Roundup
Issued by NWS

Home | Current Version | Previous Version | Text Only | Print | Product List | Glossary Off
Versions: 1 2 3 4 5 6 7 8 9 10 11 12 13 14 15 16 17 18 19 20 21 22 23 24 25 26 27 28 29 30 31 32 33 34 35 36 37 38 39 40 41 42 43 44 45 46 47 48 49 50

000
ASUS43 KLSX 300707
RWRMO

WEATHER SUMMARY FOR MISSOURI
NATIONAL WEATHER SERVICE SPRINGFIELD MO
200 AM CDT SAT MAY 30 2015

NOTE: "FAIR" INDICATES FEW OR NO CLOUDS BELOW 12,000 FEET WITH NO
       SIGNIFICANT WEATHER AND/OR OBSTRUCTIONS TO VISIBILITY.
       CURRENT SKY AND/OR WEATHER CONDITIONS ARE NOT AVAILABLE FOR
       CHILLICOTHE AND FARMINGTON.

MOZ001>031-035>038-043-044-053-054-300800-
...NORTHERN AND WESTERN MISSOURI...

CITY           SKY/WX    TMP DP  RH WIND       PRES   REMARKS
KANSAS CTY INT CLOUDY    62  62 100 S3        29.97S
KANSAS C DTWN  CLOUDY    66  63  90 S3        29.96F
LEE`S SUMMIT   CLOUDY    63  61  93 SW3       29.97F
ST JOSEPH      CLOUDY    64  62  93 NW15      29.98F
CHILLICOTHE      N/A     66  64  93 CALM      29.97F
KIRKSVILLE     CLOUDY    66  65  96 SW3       29.98F

$$
MOZ066>068-077>081-088>096-101>105-300800-
...SOUTHWEST MISSOURI...

CITY           SKY/WX    TMP DP  RH WIND       PRES   REMARKS
SPRINGFIELD    CLOUDY    66  64  93 SE6       29.96S
JOPLIN         CLOUDY    64  63  96 CALM      29.97F

$$
MOZ032>034-039>042-045>050-055>058-069>072-300800-
...CENTRAL MISSOURI...

CITY           SKY/WX    TMP DP  RH WIND       PRES   REMARKS
COLUMBIA       LGT RAIN  66  65  96 NE5       29.96F
JEFFERSON CITY LGT RAIN  68  66  93 CALM      29.95F
ROLLA          LGT RAIN  65  64  97 S6        29.96F
SEDALIA        CLOUDY    67  64  90 CALM      29.97F
WHITEMAN AFB   CLOUDY    66  66 100 E2        29.95F
WARRENSBURG    FOG       61  61 100 CALM      29.96F VSB 3/4
OSAGE BEACH    CLOUDY    66  64  94 CALM      29.96S

$$
MOZ051-052-059>065-300800-
...EAST CENTRAL MISSOURI...

CITY           SKY/WX    TMP DP  RH WIND       PRES   REMARKS
ST LOUIS INTL  RAIN      72  66  83 E10       29.97F FOG
SPIRIT OF STL  LGT RAIN  69  68  96 CALM      29.94F
ST CHARLES     LGT RAIN  68  66  93 E6        29.95F

$$
MOZ072>076-082>087-097>100-106>115-300800-
...SOUTH CENTRAL AND SOUTHEAST MISSOURI...

CITY           SKY/WX    TMP DP  RH WIND       PRES   REMARKS
CAPE GIRARDEAU MOCLDY    73  69  87 SE9       29.98F
FARMINGTON     CLOUDY    68  66  94 S5        30.01F
POPLAR BLUFF   MOCLDY    73  68  84 S6        29.95F
WEST PLAINS    RAIN      65  64  97 CALM      30.00R FOG

$$


USA.gov is the U.S. government's official web portal to all federal, state and local government web resources and services.